Year,Month,Day,Hour,Minute,Value (Times are PST for temperature in C)
2014,11,19,00,00,2.70
2014,11,19,00,01,2.70
2014,11,19,00,02,2.70
2014,11,19,00,03,2.70
2014,11,19,00,04,2.70
2014,11,19,00,05,2.70
2014,11,19,00,06,2.70
2014,11,19,00,07,2.70
2014,11,19,00,08,2.70
2014,11,19,00,09,2.80
2014,11,19,00,10,2.80
2014,11,19,00,11,2.80
2014,11,19,00,12,2.80
2014,11,19,00,13,2.80
2014,11,19,00,14,2.90
2014,11,19,00,15,2.80
2014,11,19,00,16,2.80
2014,11,19,00,17,2.80
2014,11,19,00,18,2.80
2014,11,19,00,19,2.80
2014,11,19,00,20,2.80
2014,11,19,00,21,2.80
2014,11,19,00,22,2.80
2014,11,19,00,23,2.80
2014,11,19,00,24,2.90
2014,11,19,00,25,2.90
2014,11,19,00,26,3.00
2014,11,19,00,27,3.00
2014,11,19,00,28,3.10
2014,11,19,00,29,3.10
2014,11,19,00,30,3.20
2014,11,19,00,31,3.20
2014,11,19,00,32,3.30
2014,11,19,00,33,3.40
2014,11,19,00,34,3.60
2014,11,19,00,35,3.70
2014,11,19,00,36,3.80
2014,11,19,00,37,3.80
2014,11,19,00,38,3.80
2014,11,19,00,39,3.90
2014,11,19,00,40,3.80
2014,11,19,00,41,3.80
2014,11,19,00,42,3.70
2014,11,19,00,43,3.60
2014,11,19,00,44,3.50
2014,11,19,00,45,3.50
2014,11,19,00,46,3.40
2014,11,19,00,47,3.40
2014,11,19,00,48,3.30
2014,11,19,00,49,3.30
2014,11,19,00,50,3.30
2014,11,19,00,51,3.20
2014,11,19,00,52,3.20
2014,11,19,00,53,3.20
2014,11,19,00,54,3.30
2014,11,19,00,55,3.30
2014,11,19,00,56,3.30
2014,11,19,00,57,3.40
2014,11,19,00,58,3.50
2014,11,19,00,59,3.50
2014,11,19,01,00,3.60
2014,11,19,01,01,3.60
2014,11,19,01,02,3.60
2014,11,19,01,03,3.60
2014,11,19,01,04,3.60
2014,11,19,01,05,3.60
2014,11,19,01,06,3.60
2014,11,19,01,07,3.60
2014,11,19,01,08,3.50
2014,11,19,01,09,3.50
2014,11,19,01,10,3.40
2014,11,19,01,11,3.40
2014,11,19,01,12,3.40
2014,11,19,01,13,3.30
2014,11,19,01,14,3.30
2014,11,19,01,15,3.40
2014,11,19,01,16,3.40
2014,11,19,01,17,3.40
2014,11,19,01,18,3.40
2014,11,19,01,19,3.40
2014,11,19,01,20,3.40
2014,11,19,01,21,3.40
2014,11,19,01,22,3.40
2014,11,19,01,23,3.40
2014,11,19,01,24,3.50
2014,11,19,01,25,3.60
2014,11,19,01,26,3.70
2014,11,19,01,27,3.80
2014,11,19,01,28,3.80
2014,11,19,01,29,3.80
2014,11,19,01,30,3.80
2014,11,19,01,31,3.80
2014,11,19,01,32,3.80
2014,11,19,01,33,3.70
2014,11,19,01,34,3.70
2014,11,19,01,35,3.60
2014,11,19,01,36,3.60
2014,11,19,01,37,3.50
2014,11,19,01,38,3.50
2014,11,19,01,39,3.40
2014,11,19,01,40,3.40
2014,11,19,01,41,3.40
2014,11,19,01,42,3.40
2014,11,19,01,43,3.30
2014,11,19,01,44,3.30
2014,11,19,01,45,3.30
2014,11,19,01,46,3.30
2014,11,19,01,47,3.30
2014,11,19,01,48,3.30
2014,11,19,01,49,3.30
2014,11,19,01,50,3.30
2014,11,19,01,51,3.30
2014,11,19,01,52,3.30
2014,11,19,01,53,3.30
2014,11,19,01,54,3.30
2014,11,19,01,55,3.30
2014,11,19,01,56,3.30
2014,11,19,01,57,3.30
2014,11,19,01,58,3.30
2014,11,19,01,59,3.30
2014,11,19,02,00,3.30
2014,11,19,02,01,3.30
2014,11,19,02,02,3.30
2014,11,19,02,03,3.40
2014,11,19,02,04,3.40
2014,11,19,02,05,3.50
2014,11,19,02,06,3.60
2014,11,19,02,07,3.60
2014,11,19,02,08,3.60
2014,11,19,02,09,3.70
2014,11,19,02,10,3.70
2014,11,19,02,11,3.70
2014,11,19,02,12,3.70
2014,11,19,02,13,3.70
2014,11,19,02,14,3.70
2014,11,19,02,15,3.80
2014,11,19,02,16,3.80
2014,11,19,02,17,3.80
2014,11,19,02,18,3.80
2014,11,19,02,19,3.90
2014,11,19,02,20,3.90
2014,11,19,02,21,3.90
2014,11,19,02,22,3.90
2014,11,19,02,23,3.90
2014,11,19,02,24,4.00
2014,11,19,02,25,4.00
2014,11,19,02,26,4.10
2014,11,19,02,27,4.10
2014,11,19,02,28,4.10
2014,11,19,02,29,4.20
2014,11,19,02,30,4.20
2014,11,19,02,31,4.30
2014,11,19,02,32,4.30
2014,11,19,02,33,4.20
2014,11,19,02,34,4.20
2014,11,19,02,35,4.20
2014,11,19,02,36,4.20
2014,11,19,02,37,4.20
2014,11,19,02,38,4.10
2014,11,19,02,39,4.10
2014,11,19,02,40,4.10
2014,11,19,02,41,4.10
2014,11,19,02,42,4.10
2014,11,19,02,43,4.10
2014,11,19,02,44,4.10
2014,11,19,02,45,4.10
2014,11,19,02,46,4.10
2014,11,19,02,47,4.10
2014,11,19,02,48,4.10
2014,11,19,02,49,4.20
2014,11,19,02,50,4.30
2014,11,19,02,51,4.30
2014,11,19,02,52,4.40
2014,11,19,02,53,4.40
2014,11,19,02,54,4.40
2014,11,19,02,55,4.40
2014,11,19,02,56,4.40
2014,11,19,02,57,4.40
2014,11,19,02,58,4.40
2014,11,19,02,59,4.40
2014,11,19,03,00,4.40
2014,11,19,03,01,4.40
2014,11,19,03,02,4.40
2014,11,19,03,03,4.40
2014,11,19,03,04,4.40
2014,11,19,03,05,4.50
2014,11,19,03,06,4.50
2014,11,19,03,07,4.60
2014,11,19,03,08,4.60
2014,11,19,03,09,4.70
2014,11,19,03,10,4.70
2014,11,19,03,11,4.70
2014,11,19,03,12,4.70
2014,11,19,03,13,4.70
2014,11,19,03,14,4.80
2014,11,19,03,15,4.80
2014,11,19,03,16,4.80
2014,11,19,03,17,4.80
2014,11,19,03,18,4.80
2014,11,19,03,19,4.90
2014,11,19,03,20,4.90
2014,11,19,03,21,4.90
2014,11,19,03,22,4.90
2014,11,19,03,23,4.90
2014,11,19,03,24,5.00
2014,11,19,03,25,5.00
2014,11,19,03,26,5.00
2014,11,19,03,27,5.10
2014,11,19,03,28,5.10
2014,11,19,03,29,5.10
2014,11,19,03,30,5.00
2014,11,19,03,31,5.00
2014,11,19,03,32,5.00
2014,11,19,03,33,5.00
2014,11,19,03,34,4.90
2014,11,19,03,35,4.90
2014,11,19,03,36,4.90
2014,11,19,03,37,4.90
2014,11,19,03,38,4.90
2014,11,19,03,39,4.90
2014,11,19,03,40,4.90
2014,11,19,03,41,4.80
2014,11,19,03,42,4.80
2014,11,19,03,43,4.80
2014,11,19,03,44,4.80
2014,11,19,03,45,4.80
2014,11,19,03,46,4.80
2014,11,19,03,47,4.80
2014,11,19,03,48,4.80
2014,11,19,03,49,4.80
2014,11,19,03,50,4.80
2014,11,19,03,51,4.90
2014,11,19,03,52,4.90
2014,11,19,03,53,5.00
2014,11,19,03,54,5.00
2014,11,19,03,55,5.10
2014,11,19,03,56,5.10
2014,11,19,03,57,5.10
2014,11,19,03,58,5.10
2014,11,19,03,59,5.20
2014,11,19,04,00,5.20
2014,11,19,04,01,5.20
2014,11,19,04,02,5.20
2014,11,19,04,03,5.20
2014,11,19,04,04,5.20
2014,11,19,04,05,5.20
2014,11,19,04,06,5.20
2014,11,19,04,07,5.20
2014,11,19,04,08,5.20
2014,11,19,04,09,5.20
2014,11,19,04,10,5.20
2014,11,19,04,11,5.20
2014,11,19,04,12,5.20
2014,11,19,04,13,5.20
2014,11,19,04,14,5.20
2014,11,19,04,15,5.20
2014,11,19,04,16,5.20
2014,11,19,04,17,5.20
2014,11,19,04,18,5.20
2014,11,19,04,19,5.20
2014,11,19,04,20,5.20
2014,11,19,04,21,5.20
2014,11,19,04,22,5.20
2014,11,19,04,23,5.20
2014,11,19,04,24,5.30
2014,11,19,04,25,5.30
2014,11,19,04,26,5.30
2014,11,19,04,27,5.30
2014,11,19,04,28,5.30
2014,11,19,04,29,5.30
2014,11,19,04,30,5.30
2014,11,19,04,31,5.20
2014,11,19,04,32,5.20
2014,11,19,04,33,5.20
2014,11,19,04,34,5.20
2014,11,19,04,35,5.20
2014,11,19,04,36,5.20
2014,11,19,04,37,5.20
2014,11,19,04,38,5.20
2014,11,19,04,39,5.20
2014,11,19,04,40,5.20
2014,11,19,04,41,5.20
2014,11,19,04,42,5.20
2014,11,19,04,43,5.20
2014,11,19,04,44,5.20
2014,11,19,04,45,5.20
2014,11,19,04,46,5.20
2014,11,19,04,47,5.20
2014,11,19,04,48,5.20
2014,11,19,04,49,5.30
2014,11,19,04,50,5.30
2014,11,19,04,51,5.30
2014,11,19,04,52,5.30
2014,11,19,04,53,5.30
2014,11,19,04,54,5.30
2014,11,19,04,55,5.30
2014,11,19,04,56,5.30
2014,11,19,04,57,5.30
2014,11,19,04,58,5.30
2014,11,19,04,59,5.20
2014,11,19,05,00,5.20
2014,11,19,05,01,5.10
2014,11,19,05,02,5.10
2014,11,19,05,03,5.10
2014,11,19,05,04,5.10
2014,11,19,05,05,5.00
2014,11,19,05,06,5.00
2014,11,19,05,07,5.00
2014,11,19,05,08,5.00
2014,11,19,05,09,5.00
2014,11,19,05,10,5.00
2014,11,19,05,11,5.10
2014,11,19,05,12,5.10
2014,11,19,05,13,5.10
2014,11,19,05,14,5.10
2014,11,19,05,15,5.10
2014,11,19,05,16,5.10
2014,11,19,05,17,5.00
2014,11,19,05,18,5.00
2014,11,19,05,19,5.00
2014,11,19,05,20,5.00
2014,11,19,05,21,5.00
2014,11,19,05,22,5.00
2014,11,19,05,23,5.00
2014,11,19,05,24,5.00
2014,11,19,05,25,5.00
2014,11,19,05,26,5.00
2014,11,19,05,27,5.10
2014,11,19,05,28,5.10
2014,11,19,05,29,5.10
2014,11,19,05,30,5.10
2014,11,19,05,31,5.10
2014,11,19,05,32,5.10
2014,11,19,05,33,5.10
2014,11,19,05,34,5.10
2014,11,19,05,35,5.10
2014,11,19,05,36,5.10
2014,11,19,05,37,5.10
2014,11,19,05,38,5.10
2014,11,19,05,39,5.10
2014,11,19,05,40,5.10
2014,11,19,05,41,5.10
2014,11,19,05,42,5.10
2014,11,19,05,43,5.10
2014,11,19,05,44,5.10
2014,11,19,05,45,5.10
2014,11,19,05,46,5.10
2014,11,19,05,47,5.10
2014,11,19,05,48,5.10
2014,11,19,05,49,5.10
2014,11,19,05,50,5.10
2014,11,19,05,51,5.10
2014,11,19,05,52,5.10
2014,11,19,05,53,5.10
2014,11,19,05,54,5.10
2014,11,19,05,55,5.10
2014,11,19,05,56,5.10
2014,11,19,05,57,5.00
2014,11,19,05,58,5.00
2014,11,19,05,59,4.90
2014,11,19,06,00,4.90
2014,11,19,06,01,4.90
2014,11,19,06,02,4.90
2014,11,19,06,03,4.80
2014,11,19,06,04,4.90
2014,11,19,06,05,4.90
2014,11,19,06,06,4.90
2014,11,19,06,07,4.90
2014,11,19,06,08,4.90
2014,11,19,06,09,5.00
2014,11,19,06,10,5.00
2014,11,19,06,11,4.90
2014,11,19,06,12,4.90
2014,11,19,06,13,4.90
2014,11,19,06,14,4.80
2014,11,19,06,15,4.80
2014,11,19,06,16,4.80
2014,11,19,06,17,4.70
2014,11,19,06,18,4.70
2014,11,19,06,19,4.60
2014,11,19,06,20,4.60
2014,11,19,06,21,4.60
2014,11,19,06,22,4.60
2014,11,19,06,23,4.50
2014,11,19,06,24,4.50
2014,11,19,06,25,4.50
2014,11,19,06,26,4.40
2014,11,19,06,27,4.40
2014,11,19,06,28,4.40
2014,11,19,06,29,4.40
2014,11,19,06,30,4.50
2014,11,19,06,31,4.50
2014,11,19,06,32,4.50
2014,11,19,06,33,4.60
2014,11,19,06,34,4.60
2014,11,19,06,35,4.60
2014,11,19,06,36,4.60
2014,11,19,06,37,4.60
2014,11,19,06,38,4.70
2014,11,19,06,39,4.70
2014,11,19,06,40,4.70
2014,11,19,06,41,4.80
2014,11,19,06,42,4.80
2014,11,19,06,43,4.80
2014,11,19,06,44,4.90
2014,11,19,06,45,4.90
2014,11,19,06,46,4.90
2014,11,19,06,47,4.90
2014,11,19,06,48,4.90
2014,11,19,06,49,4.90
2014,11,19,06,50,4.90
2014,11,19,06,51,4.90
2014,11,19,06,52,4.90
2014,11,19,06,53,4.90
2014,11,19,06,54,4.80
2014,11,19,06,55,4.80
2014,11,19,06,56,4.70
2014,11,19,06,57,4.60
2014,11,19,06,58,4.50
2014,11,19,06,59,4.50
2014,11,19,07,00,4.40
2014,11,19,07,01,4.40
2014,11,19,07,02,4.30
2014,11,19,07,03,4.30
2014,11,19,07,04,4.20
2014,11,19,07,05,4.20
2014,11,19,07,06,4.20
2014,11,19,07,07,4.20
2014,11,19,07,08,4.20
2014,11,19,07,09,4.20
2014,11,19,07,10,4.20
2014,11,19,07,11,4.20
2014,11,19,07,12,4.20
2014,11,19,07,13,4.20
2014,11,19,07,14,4.20
2014,11,19,07,15,4.20
2014,11,19,07,16,4.20
2014,11,19,07,17,4.30
2014,11,19,07,18,4.30
2014,11,19,07,19,4.40
2014,11,19,07,20,4.50
2014,11,19,07,21,4.60
2014,11,19,07,22,4.70
2014,11,19,07,23,4.70
2014,11,19,07,24,4.80
2014,11,19,07,25,4.90
2014,11,19,07,26,5.00
2014,11,19,07,27,5.00
2014,11,19,07,28,5.10
2014,11,19,07,29,5.10
2014,11,19,07,30,5.10
2014,11,19,07,31,5.10
2014,11,19,07,32,5.10
2014,11,19,07,33,5.20
2014,11,19,07,34,5.20
2014,11,19,07,35,5.20
2014,11,19,07,36,5.20
2014,11,19,07,37,5.30
2014,11,19,07,38,5.30
2014,11,19,07,39,5.30
2014,11,19,07,40,5.30
2014,11,19,07,41,5.30
2014,11,19,07,42,5.30
2014,11,19,07,43,5.30
2014,11,19,07,44,5.30
2014,11,19,07,45,5.40
2014,11,19,07,46,5.40
2014,11,19,07,47,5.40
2014,11,19,07,48,5.40
2014,11,19,07,49,5.40
2014,11,19,07,50,5.40
2014,11,19,07,51,5.40
2014,11,19,07,52,5.40
2014,11,19,07,53,5.40
2014,11,19,07,54,5.40
2014,11,19,07,55,5.40
2014,11,19,07,56,5.40
2014,11,19,07,57,5.40
2014,11,19,07,58,5.40
2014,11,19,07,59,5.40
2014,11,19,08,00,5.30
2014,11,19,08,01,5.30
2014,11,19,08,02,5.30
2014,11,19,08,03,5.30
2014,11,19,08,04,5.30
2014,11,19,08,05,5.30
2014,11,19,08,06,5.30
2014,11,19,08,07,5.30
2014,11,19,08,08,5.30
2014,11,19,08,09,5.30
2014,11,19,08,10,5.30
2014,11,19,08,11,5.30
2014,11,19,08,12,5.30
2014,11,19,08,13,5.30
2014,11,19,08,14,5.30
2014,11,19,08,15,5.20
2014,11,19,08,16,5.20
2014,11,19,08,17,5.20
2014,11,19,08,18,5.10
2014,11,19,08,19,5.10
2014,11,19,08,20,5.10
2014,11,19,08,21,5.00
2014,11,19,08,22,5.00
2014,11,19,08,23,5.00
2014,11,19,08,24,5.00
2014,11,19,08,25,5.00
2014,11,19,08,26,5.00
2014,11,19,08,27,5.10
2014,11,19,08,28,5.10
2014,11,19,08,29,5.10
2014,11,19,08,30,5.00
2014,11,19,08,31,4.90
2014,11,19,08,32,4.90
2014,11,19,08,33,4.90
2014,11,19,08,34,4.80
2014,11,19,08,35,4.80
2014,11,19,08,36,4.80
2014,11,19,08,37,4.70
2014,11,19,08,38,4.70
2014,11,19,08,39,4.70
2014,11,19,08,40,4.70
2014,11,19,08,41,4.70
2014,11,19,08,42,4.70
2014,11,19,08,43,4.70
2014,11,19,08,44,4.70
2014,11,19,08,45,4.70
2014,11,19,08,46,4.80
2014,11,19,08,47,4.80
2014,11,19,08,48,4.80
2014,11,19,08,49,4.90
2014,11,19,08,50,4.90
2014,11,19,08,51,5.00
2014,11,19,08,52,5.00
2014,11,19,08,53,5.10
2014,11,19,08,54,5.20
2014,11,19,08,55,5.20
2014,11,19,08,56,5.30
2014,11,19,08,57,5.30
2014,11,19,08,58,5.40
2014,11,19,08,59,5.40
2014,11,19,09,00,5.50
2014,11,19,09,01,5.60
2014,11,19,09,02,5.60
2014,11,19,09,03,5.60
2014,11,19,09,04,5.70
2014,11,19,09,05,5.70
2014,11,19,09,06,5.80
2014,11,19,09,07,5.90
2014,11,19,09,08,5.90
2014,11,19,09,09,6.00
2014,11,19,09,10,6.00
2014,11,19,09,11,6.10
2014,11,19,09,12,6.20
2014,11,19,09,13,6.20
2014,11,19,09,14,6.30
2014,11,19,09,15,6.30
2014,11,19,09,16,6.30
2014,11,19,09,17,6.30
2014,11,19,09,18,6.40
2014,11,19,09,19,6.40
2014,11,19,09,20,6.40
2014,11,19,09,21,6.40
2014,11,19,09,22,6.50
2014,11,19,09,23,6.50
2014,11,19,09,24,6.50
2014,11,19,09,25,6.50
2014,11,19,09,26,6.60
2014,11,19,09,27,6.60
2014,11,19,09,28,6.60
2014,11,19,09,29,6.60
2014,11,19,09,30,6.60
2014,11,19,09,31,6.60
2014,11,19,09,32,6.70
2014,11,19,09,33,6.70
2014,11,19,09,34,6.70
2014,11,19,09,35,6.70
2014,11,19,09,36,6.70
2014,11,19,09,37,6.80
2014,11,19,09,38,6.80
2014,11,19,09,39,6.80
2014,11,19,09,40,6.80
2014,11,19,09,41,6.80
2014,11,19,09,42,6.80
2014,11,19,09,43,6.90
2014,11,19,09,44,6.90
2014,11,19,09,45,6.90
2014,11,19,09,46,7.00
2014,11,19,09,47,7.00
2014,11,19,09,48,7.00
2014,11,19,09,49,7.10
2014,11,19,09,50,7.10
2014,11,19,09,51,7.20
2014,11,19,09,52,7.20
2014,11,19,09,53,7.30
2014,11,19,09,54,7.30
2014,11,19,09,55,7.30
2014,11,19,09,56,7.30
2014,11,19,09,57,7.40
2014,11,19,09,58,7.40
2014,11,19,09,59,7.40
2014,11,19,10,00,7.50
2014,11,19,10,01,7.50
2014,11,19,10,02,7.50
2014,11,19,10,03,7.60
2014,11,19,10,04,7.60
2014,11,19,10,05,7.70
2014,11,19,10,06,7.70
2014,11,19,10,07,7.70
2014,11,19,10,08,7.80
2014,11,19,10,09,7.80
2014,11,19,10,10,7.80
2014,11,19,10,11,7.90
2014,11,19,10,12,7.90
2014,11,19,10,13,7.90
2014,11,19,10,14,7.90
2014,11,19,10,15,8.00
2014,11,19,10,16,8.00
2014,11,19,10,17,8.00
2014,11,19,10,18,8.10
2014,11,19,10,19,8.10
2014,11,19,10,20,8.10
2014,11,19,10,21,8.10
2014,11,19,10,22,8.10
2014,11,19,10,23,8.10
2014,11,19,10,24,8.10
2014,11,19,10,25,8.10
2014,11,19,10,26,8.20
2014,11,19,10,27,8.20
2014,11,19,10,28,8.20
2014,11,19,10,29,8.20
2014,11,19,10,30,8.20
2014,11,19,10,31,8.20
2014,11,19,10,32,8.20
2014,11,19,10,33,8.20
2014,11,19,10,34,8.20
2014,11,19,10,35,8.20
2014,11,19,10,36,8.20
2014,11,19,10,37,8.20
2014,11,19,10,38,8.20
2014,11,19,10,39,8.20
2014,11,19,10,40,8.20
2014,11,19,10,41,8.20
2014,11,19,10,42,8.20
2014,11,19,10,43,8.30
2014,11,19,10,44,8.30
2014,11,19,10,45,8.30
2014,11,19,10,46,8.30
2014,11,19,10,47,8.30
2014,11,19,10,48,8.40
2014,11,19,10,49,8.40
2014,11,19,10,50,8.40
2014,11,19,10,51,8.40
2014,11,19,10,52,8.40
2014,11,19,10,53,8.50
2014,11,19,10,54,8.50
2014,11,19,10,55,8.60
2014,11,19,10,56,8.60
2014,11,19,10,57,8.60
2014,11,19,10,58,8.60
2014,11,19,10,59,8.60
2014,11,19,11,00,8.60
2014,11,19,11,01,8.70
2014,11,19,11,02,8.70
2014,11,19,11,03,8.70
2014,11,19,11,04,8.70
2014,11,19,11,05,8.70
2014,11,19,11,06,8.80
2014,11,19,11,07,8.80
2014,11,19,11,08,8.80
2014,11,19,11,09,8.80
2014,11,19,11,10,8.90
2014,11,19,11,11,8.90
2014,11,19,11,12,9.00
2014,11,19,11,13,9.00
2014,11,19,11,14,9.10
2014,11,19,11,15,9.10
2014,11,19,11,16,9.10
2014,11,19,11,17,9.20
2014,11,19,11,18,9.20
2014,11,19,11,19,9.30
2014,11,19,11,20,9.30
2014,11,19,11,21,9.30
2014,11,19,11,22,9.30
2014,11,19,11,23,9.30
2014,11,19,11,24,9.30
2014,11,19,11,25,9.30
2014,11,19,11,26,9.30
2014,11,19,11,27,9.30
2014,11,19,11,28,9.30
2014,11,19,11,29,9.30
2014,11,19,11,30,9.30
2014,11,19,11,31,9.30
2014,11,19,11,32,9.30
2014,11,19,11,33,9.30
2014,11,19,11,34,9.30
2014,11,19,11,35,9.30
2014,11,19,11,36,9.30
2014,11,19,11,37,9.30
2014,11,19,11,38,9.30
2014,11,19,11,39,9.30
2014,11,19,11,40,9.30
2014,11,19,11,41,9.30
2014,11,19,11,42,9.30
2014,11,19,11,43,9.30
2014,11,19,11,44,9.30
2014,11,19,11,45,9.30
2014,11,19,11,46,9.30
2014,11,19,11,47,9.30
2014,11,19,11,48,9.30
2014,11,19,11,49,9.30
2014,11,19,11,50,9.30
2014,11,19,11,51,9.30
2014,11,19,11,52,9.30
2014,11,19,11,53,9.30
2014,11,19,11,54,9.30
2014,11,19,11,55,9.30
2014,11,19,11,56,9.30
2014,11,19,11,57,9.40
2014,11,19,11,58,9.40
2014,11,19,11,59,9.40
2014,11,19,12,00,9.50
2014,11,19,12,01,9.50
2014,11,19,12,02,9.50
2014,11,19,12,03,9.50
2014,11,19,12,04,9.50
2014,11,19,12,05,9.50
2014,11,19,12,06,9.40
2014,11,19,12,07,9.40
2014,11,19,12,08,9.40
2014,11,19,12,09,9.50
2014,11,19,12,10,9.50
2014,11,19,12,11,9.60
2014,11,19,12,12,9.60
2014,11,19,12,13,9.70
2014,11,19,12,14,9.70
2014,11,19,12,15,9.70
2014,11,19,12,16,9.70
2014,11,19,12,17,9.70
2014,11,19,12,18,9.70
2014,11,19,12,19,9.80
2014,11,19,12,20,9.80
2014,11,19,12,21,9.80
2014,11,19,12,22,9.80
2014,11,19,12,23,9.80
2014,11,19,12,24,9.80
2014,11,19,12,25,9.80
2014,11,19,12,26,9.80
2014,11,19,12,27,9.90
2014,11,19,12,28,9.90
2014,11,19,12,29,9.90
2014,11,19,12,30,9.90
2014,11,19,12,31,9.80
2014,11,19,12,32,9.80
2014,11,19,12,33,9.80
2014,11,19,12,34,9.70
2014,11,19,12,35,9.70
2014,11,19,12,36,9.70
2014,11,19,12,37,9.70
2014,11,19,12,38,9.70
2014,11,19,12,39,9.70
2014,11,19,12,40,9.80
2014,11,19,12,41,9.80
2014,11,19,12,42,9.80
2014,11,19,12,43,9.80
2014,11,19,12,44,9.80
2014,11,19,12,45,9.80
2014,11,19,12,46,9.90
2014,11,19,12,47,9.90
2014,11,19,12,48,9.90
2014,11,19,12,49,9.90
2014,11,19,12,50,9.90
2014,11,19,12,51,9.90
2014,11,19,12,52,9.90
2014,11,19,12,53,9.90
2014,11,19,12,54,9.90
2014,11,19,12,55,9.90
2014,11,19,12,56,9.90
2014,11,19,12,57,9.90
2014,11,19,12,58,9.90
2014,11,19,12,59,9.90
2014,11,19,13,00,9.80
2014,11,19,13,01,9.80
2014,11,19,13,02,9.80
2014,11,19,13,03,9.70
2014,11,19,13,04,9.70
2014,11,19,13,05,9.70
2014,11,19,13,06,9.70
2014,11,19,13,07,9.70
2014,11,19,13,08,9.70
2014,11,19,13,09,9.70
2014,11,19,13,10,9.70
2014,11,19,13,11,9.70
2014,11,19,13,12,9.70
2014,11,19,13,13,9.70
2014,11,19,13,14,9.70
2014,11,19,13,15,9.70
2014,11,19,13,16,9.70
2014,11,19,13,17,9.70
2014,11,19,13,18,9.70
2014,11,19,13,19,9.70
2014,11,19,13,20,9.70
2014,11,19,13,21,9.70
2014,11,19,13,22,9.70
2014,11,19,13,23,9.70
2014,11,19,13,24,9.70
2014,11,19,13,25,9.70
2014,11,19,13,26,9.70
2014,11,19,13,27,9.80
2014,11,19,13,28,9.70
2014,11,19,13,29,9.80
2014,11,19,13,30,9.80
2014,11,19,13,31,9.70
2014,11,19,13,32,9.70
2014,11,19,13,33,9.70
2014,11,19,13,34,9.70
2014,11,19,13,35,9.70
2014,11,19,13,36,9.70
2014,11,19,13,37,9.70
2014,11,19,13,38,9.70
2014,11,19,13,39,9.70
2014,11,19,13,40,9.70
2014,11,19,13,41,9.70
2014,11,19,13,42,9.70
2014,11,19,13,43,9.70
2014,11,19,13,44,9.70
2014,11,19,13,45,9.70
2014,11,19,13,46,9.70
2014,11,19,13,47,9.70
2014,11,19,13,48,9.70
2014,11,19,13,49,9.60
2014,11,19,13,50,9.60
2014,11,19,13,51,9.60
2014,11,19,13,52,9.60
2014,11,19,13,53,9.60
2014,11,19,13,54,9.60
2014,11,19,13,55,9.60
2014,11,19,13,56,9.60
2014,11,19,13,57,9.70
2014,11,19,13,58,9.70
2014,11,19,13,59,9.70
2014,11,19,14,00,9.70
2014,11,19,14,01,9.70
2014,11,19,14,02,9.70
2014,11,19,14,03,9.70
2014,11,19,14,04,9.70
2014,11,19,14,05,9.70
2014,11,19,14,06,9.80
2014,11,19,14,07,9.80
2014,11,19,14,08,9.80
2014,11,19,14,09,9.80
2014,11,19,14,10,9.80
2014,11,19,14,11,9.80
2014,11,19,14,12,9.80
2014,11,19,14,13,9.80
2014,11,19,14,14,9.80
2014,11,19,14,15,9.80
2014,11,19,14,16,9.80
2014,11,19,14,17,9.80
2014,11,19,14,18,9.80
2014,11,19,14,19,9.80
2014,11,19,14,20,9.80
2014,11,19,14,21,9.80
2014,11,19,14,22,9.80
2014,11,19,14,23,9.80
2014,11,19,14,24,9.80
2014,11,19,14,25,9.80
2014,11,19,14,26,9.80
2014,11,19,14,27,9.80
2014,11,19,14,28,9.80
2014,11,19,14,29,9.80
2014,11,19,14,30,9.80
2014,11,19,14,31,9.80
2014,11,19,14,32,9.80
2014,11,19,14,33,9.80
2014,11,19,14,34,9.80
2014,11,19,14,35,9.80
2014,11,19,14,36,9.80
2014,11,19,14,37,9.80
2014,11,19,14,38,9.80
2014,11,19,14,39,9.80
2014,11,19,14,40,9.80
2014,11,19,14,41,9.80
2014,11,19,14,42,9.80
2014,11,19,14,43,9.80
2014,11,19,14,44,9.80
2014,11,19,14,45,9.80
2014,11,19,14,46,9.80
2014,11,19,14,47,9.80
2014,11,19,14,48,9.80
2014,11,19,14,49,9.80
2014,11,19,14,50,9.80
2014,11,19,14,51,9.80
2014,11,19,14,52,9.80
2014,11,19,14,53,9.80
2014,11,19,14,54,9.80
2014,11,19,14,55,9.80
2014,11,19,14,56,9.80
2014,11,19,14,57,9.80
2014,11,19,14,58,9.80
2014,11,19,14,59,9.80
2014,11,19,15,00,9.80
2014,11,19,15,01,9.80
2014,11,19,15,02,9.80
2014,11,19,15,03,9.80
2014,11,19,15,04,9.80
2014,11,19,15,05,9.80
2014,11,19,15,06,9.80
2014,11,19,15,07,9.80
2014,11,19,15,08,9.80
2014,11,19,15,09,9.80
2014,11,19,15,10,9.80
2014,11,19,15,11,9.80
2014,11,19,15,12,9.80
2014,11,19,15,13,9.80
2014,11,19,15,14,9.80
2014,11,19,15,15,9.80
2014,11,19,15,16,9.80
2014,11,19,15,17,9.80
2014,11,19,15,18,9.80
2014,11,19,15,19,9.80
2014,11,19,15,20,9.80
2014,11,19,15,21,9.80
2014,11,19,15,22,9.80
2014,11,19,15,23,9.80
2014,11,19,15,24,9.80
2014,11,19,15,25,9.80
2014,11,19,15,26,9.80
2014,11,19,15,27,9.80
2014,11,19,15,28,9.80
2014,11,19,15,29,9.80
2014,11,19,15,30,9.80
2014,11,19,15,31,9.80
2014,11,19,15,32,9.80
2014,11,19,15,33,9.80
2014,11,19,15,34,9.80
2014,11,19,15,35,9.80
2014,11,19,15,36,9.80
2014,11,19,15,37,9.70
2014,11,19,15,38,9.70
2014,11,19,15,39,9.70
2014,11,19,15,40,9.70
2014,11,19,15,41,9.70
2014,11,19,15,42,9.70
2014,11,19,15,43,9.60
2014,11,19,15,44,9.60
2014,11,19,15,45,9.60
2014,11,19,15,46,9.60
2014,11,19,15,47,9.60
2014,11,19,15,48,9.50
2014,11,19,15,49,9.50
2014,11,19,15,50,9.50
2014,11,19,15,51,9.40
2014,11,19,15,52,9.40
2014,11,19,15,53,9.40
2014,11,19,15,54,9.40
2014,11,19,15,55,9.30
2014,11,19,15,56,9.30
2014,11,19,15,57,9.30
2014,11,19,15,58,9.30
2014,11,19,15,59,9.30
2014,11,19,16,00,9.30
2014,11,19,16,01,9.30
2014,11,19,16,02,9.20
2014,11,19,16,03,9.20
2014,11,19,16,04,9.20
2014,11,19,16,05,9.20
2014,11,19,16,06,9.20
2014,11,19,16,07,9.20
2014,11,19,16,08,9.10
2014,11,19,16,09,9.10
2014,11,19,16,10,9.10
2014,11,19,16,11,9.10
2014,11,19,16,12,9.10
2014,11,19,16,13,9.10
2014,11,19,16,14,9.10
2014,11,19,16,15,9.00
2014,11,19,16,16,9.00
2014,11,19,16,17,9.00
2014,11,19,16,18,8.90
2014,11,19,16,19,8.90
2014,11,19,16,20,8.90
2014,11,19,16,21,8.90
2014,11,19,16,22,8.90
2014,11,19,16,23,8.90
2014,11,19,16,24,8.90
2014,11,19,16,25,8.90
2014,11,19,16,26,8.90
2014,11,19,16,27,8.80
2014,11,19,16,28,8.80
2014,11,19,16,29,8.80
2014,11,19,16,30,8.80
2014,11,19,16,31,8.80
2014,11,19,16,32,8.80
2014,11,19,16,33,8.80
2014,11,19,16,34,8.70
2014,11,19,16,35,8.70
2014,11,19,16,36,8.70
2014,11,19,16,37,8.70
2014,11,19,16,38,8.70
2014,11,19,16,39,8.70
2014,11,19,16,40,8.70
2014,11,19,16,41,8.60
2014,11,19,16,42,8.60
2014,11,19,16,43,8.60
2014,11,19,16,44,8.60
2014,11,19,16,45,8.60
2014,11,19,16,46,8.60
2014,11,19,16,47,8.50
2014,11,19,16,48,8.50
2014,11,19,16,49,8.50
2014,11,19,16,50,8.50
2014,11,19,16,51,8.40
2014,11,19,16,52,8.40
2014,11,19,16,53,8.40
2014,11,19,16,54,8.30
2014,11,19,16,55,8.30
2014,11,19,16,56,8.20
2014,11,19,16,57,8.20
2014,11,19,16,58,8.10
2014,11,19,16,59,8.10
2014,11,19,17,00,8.00
2014,11,19,17,01,8.00
2014,11,19,17,02,7.90
2014,11,19,17,03,7.90
2014,11,19,17,04,7.80
2014,11,19,17,05,7.80
2014,11,19,17,06,7.70
2014,11,19,17,07,7.70
2014,11,19,17,08,7.70
2014,11,19,17,09,7.70
2014,11,19,17,10,7.70
2014,11,19,17,11,7.60
2014,11,19,17,12,7.60
2014,11,19,17,13,7.60
2014,11,19,17,14,7.60
2014,11,19,17,15,7.60
2014,11,19,17,16,7.60
2014,11,19,17,17,7.60
2014,11,19,17,18,7.60
2014,11,19,17,19,7.60
2014,11,19,17,20,7.50
2014,11,19,17,21,7.60
2014,11,19,17,22,7.50
2014,11,19,17,23,7.50
2014,11,19,17,24,7.50
2014,11,19,17,25,7.50
2014,11,19,17,26,7.50
2014,11,19,17,27,7.40
2014,11,19,17,28,7.40
2014,11,19,17,29,7.40
2014,11,19,17,30,7.40
2014,11,19,17,31,7.40
2014,11,19,17,32,7.40
2014,11,19,17,33,7.30
2014,11,19,17,34,7.30
2014,11,19,17,35,7.30
2014,11,19,17,36,7.30
2014,11,19,17,37,7.30
2014,11,19,17,38,7.30
2014,11,19,17,39,7.30
2014,11,19,17,40,7.30
2014,11,19,17,41,7.30
2014,11,19,17,42,7.30
2014,11,19,17,43,7.30
2014,11,19,17,44,7.40
2014,11,19,17,45,7.40
2014,11,19,17,46,7.40
2014,11,19,17,47,7.40
2014,11,19,17,48,7.40
2014,11,19,17,49,7.40
2014,11,19,17,50,7.40
2014,11,19,17,51,7.40
2014,11,19,17,52,7.40
2014,11,19,17,53,7.50
2014,11,19,17,54,7.50
2014,11,19,17,55,7.60
2014,11,19,17,56,7.60
2014,11,19,17,57,7.60
2014,11,19,17,58,7.60
2014,11,19,17,59,7.60
2014,11,19,18,00,7.60
2014,11,19,18,01,7.60
2014,11,19,18,02,7.60
2014,11,19,18,03,7.70
2014,11,19,18,04,7.70
2014,11,19,18,05,7.70
2014,11,19,18,06,7.70